Regional Weather Roundup
Issued by NWS

Home | Current Version | Previous Version | Text Only | Print | Product List | Glossary Off
Versions: 1 2 3 4 5 6 7 8 9 10 11 12 13 14 15 16 17 18 19 20 21 22 23 24 25 26 27 28 29 30 31 32 33 34 35 36 37 38 39 40 41 42 43 44 45 46 47 48 49 50

000
ASUS43 KLSX 211759
RWRMO

WEATHER SUMMARY FOR MISSOURI
NATIONAL WEATHER SERVICE SPRINGFIELD MO
1200 PM CST SUN DEC 21 2014

NOTE: "FAIR" INDICATES FEW OR NO CLOUDS BELOW 12,000 FEET WITH NO
       SIGNIFICANT WEATHER AND/OR OBSTRUCTIONS TO VISIBILITY.
       CURRENT SKY AND/OR WEATHER CONDITIONS ARE NOT AVAILABLE FOR
       CHILLICOTHE AND FARMINGTON.

MOZ001>031-035>038-043-044-053-054-211900-
...NORTHERN AND WESTERN MISSOURI...

CITY           SKY/WX    TMP DP  RH WIND       PRES   REMARKS
KANSAS CTY INT CLOUDY    42  38  85 S15       29.93F
6HR MIN TEMP:  38; 6HR MAX TEMP:  42; 6HR PCP: TRACE;

KANSAS C DTWN  CLOUDY    44  38  79 S13       29.96F
6HR MIN TEMP:  39; 6HR MAX TEMP:  44;

LEE`S SUMMIT   CLOUDY    43  39  86 S10       29.96F
6HR MIN TEMP:  37; 6HR MAX TEMP:  43;

ST JOSEPH      CLOUDY    42  38  85 S16G23    29.92F
6HR MIN TEMP:  37; 6HR MAX TEMP:  42;

CHILLICOTHE      N/A     44  39  82 S12       29.98F
6HR MIN TEMP:  40; 6HR MAX TEMP:  44;

KIRKSVILLE     CLOUDY    43  38  82 S14       29.99F
6HR MIN TEMP:  38; 6HR MAX TEMP:  43;


$$
MOZ066>068-077>081-088>096-101>105-211900-
...SOUTHWEST MISSOURI...

CITY           SKY/WX    TMP DP  RH WIND       PRES   REMARKS
SPRINGFIELD    CLOUDY    41  38  89 SE16      30.01F FOG
6HR MIN TEMP:  40; 6HR MAX TEMP:  41;

JOPLIN         CLOUDY    46  41  82 S17       30.00
6HR MIN TEMP:  42; 6HR MAX TEMP:  46; 6HR PCP: TRACE;


$$
MOZ032>034-039>042-045>050-055>058-069>072-211900-
...CENTRAL MISSOURI...

CITY           SKY/WX    TMP DP  RH WIND       PRES   REMARKS
COLUMBIA       CLOUDY    43  37  79 S16       30.04F
6HR MIN TEMP:  41; 6HR MAX TEMP:  44;

JEFFERSON CITY CLOUDY    45  36  70 S9        30.06F
6HR MIN TEMP:  41; 6HR MAX TEMP:  45;

ROLLA          CLOUDY    40  35  83 S13       30.06F
6HR MIN TEMP:  38; 6HR MAX TEMP:  41;

SEDALIA        CLOUDY    45  40  82 S15       30.01F
6HR MIN TEMP:  41; 6HR MAX TEMP:  45; 6HR PCP: TRACE;

OSAGE BEACH    CLOUDY    43  36  75 S8        30.05F

$$
MOZ051-052-059>065-211900-
...EAST CENTRAL MISSOURI...

CITY           SKY/WX    TMP DP  RH WIND       PRES   REMARKS
ST LOUIS INTL  CLOUDY    43  32  65 SE15      30.14F
6HR MIN TEMP:  41; 6HR MAX TEMP:  43;

SPIRIT OF STL  CLOUDY    43  34  70 SE9       30.11F
6HR MIN TEMP:  40; 6HR MAX TEMP:  43;

ST CHARLES     CLOUDY    41  34  76 SE15      30.13F
6HR MIN TEMP:  39; 6HR MAX TEMP:  41;


$$
MOZ072>076-082>087-097>100-106>115-211900-
...SOUTH CENTRAL AND SOUTHEAST MISSOURI...

CITY           SKY/WX    TMP DP  RH WIND       PRES   REMARKS
CAPE GIRARDEAU CLOUDY    43  30  60 SE7       30.18F
6HR MIN TEMP:  28; 6HR MAX TEMP:  43;

FARMINGTON     CLOUDY    41  34  75 E9        30.14F
6HR MIN TEMP:  37; 6HR MAX TEMP:  41;

POPLAR BLUFF   CLOUDY    41  30  65 E7        30.15F
6HR MIN TEMP:  35; 6HR MAX TEMP:  41;

WEST PLAINS    CLOUDY    39  34  82 SE8       30.10F
6HR MIN TEMP:  37; 6HR MAX TEMP:  39;


$$



USA.gov is the U.S. government's official web portal to all federal, state and local government web resources and services.